[[{"header":{"parameterUnit":"m.s-1","parameterCategory":2,"la1":30.2991,"la2":30.254,"lo1":-89.0895,"lo2":-89.0444,"dy":0.0017,"dx":0.0017,"nx":28,"ny":28,"refTime":"2025-01-25T03:00:00:Z","depth":"0","parameterNumber":2,"parameterNumberName":"U-component_of_CURRENTS"},"data":[0,0,0,0,0,0,0,0,0,0,0,0,0,0,0,0,0,0,0,0,0,0,0,0,0,0,0,0,0,0,0,0,0,0,0,0,0,0,0,0,0,0,0,0,0,0,0,0,0,0,0,0,0,0,0,0,0,0,0.2307,0.2307,0,0.2334,0.2334,0.2334,0.2331,0.2331,0.2331,0.2331,0.2301,0.23,0.23,0,0,0,0,0,0,0,0,0,0,0,0,0,0.2242,0.2243,0.2306,0.2307,0.2308,0.2334,0.2334,0.2334,0.2331,0.2331,0.2331,0.233,0.2301,0.2301,0.23,0,0,0,0,0,0,0,0,0,0,0,0,0,0.2268,0.2243,0.2306,0.2311,0.2312,0.2334,0.2334,0.2334,0.2331,0.2331,0.2331,0.233,0.2301,0.2301,0.23,0.2302,0,0,0.2297,0.2297,0,0,0,0,0,0,0,0,0.2266,0.227,0.231,0.2311,0.2312,0.2331,0.2301,0.2321,0.2331,0.2322,0.2331,0.233,0.2307,0.2306,0.231,0.2301,0.2299,0.2297,0.2297,0.2296,0.2296,0,0,0,0,0,0,0,0.2265,0.2269,0.2315,0.231,0.2311,0.2308,0.2311,0.2305,0.2313,0.2322,0.2323,0.2329,0.2307,0.2311,0.2309,0.2299,0.2297,0.2296,0.2296,0.2296,0.2289,0.2289,0,0,0,0,0,0,0.2267,0.2267,0.2314,0.2316,0.229,0.231,0.2313,0.2323,0.2315,0.2314,0.233,0.2329,0.2312,0.231,0.2308,0.2322,0.2296,0.2296,0.2295,0.2289,0.2289,0.229,0,0,0,0,0,0,0.2265,0.2271,0.2313,0.2294,0.2299,0.2312,0.2323,0.2324,0.233,0.2321,0.2319,0.2334,0.2312,0.2309,0.2312,0.232,0.2295,0.2294,0.2288,0.2289,0.2289,0.2342,0,0,0,0,0,0,0.2263,0.227,0.2278,0.2294,0.23,0.2329,0.2323,0.2325,0.2335,0.2335,0.2325,0.2322,0.2311,0.2313,0.2311,0.2319,0.2294,0.2288,0.2289,0.2289,0.234,0.2345,0.2348,0,0,0,0,0,0.2261,0.2272,0.2278,0.2284,0.2311,0.233,0.2333,0.2338,0.2336,0.2341,0.234,0.2322,0.2315,0.2314,0.2311,0.2318,0.2288,0.2288,0.2289,0.2338,0.2344,0.2348,0,0,0,0,0,0,0.2251,0.2274,0.228,0.2299,0.2315,0.233,0.2339,0.2342,0.2346,0.2345,0.2332,0.233,0.2339,0.2318,0.2316,0.2316,0.2296,0.2296,0.2334,0.2339,0.2343,0.2414,0.2293,0,0,0,0,0,0.2254,0.2265,0.2288,0.2303,0.2313,0.2326,0.2335,0.234,0.2348,0.2349,0.2345,0.2338,0.2339,0.2331,0.2331,0.2328,0.2347,0.2328,0.2332,0.2336,0.2391,0.2416,0.2429,0.2292,0.2292,0.2292,0,0,0.2257,0.2269,0.2278,0.2302,0.2315,0.2332,0.233,0.2347,0.236,0.2344,0.2359,0.2359,0.2345,0.2352,0.2351,0.2334,0.2378,0.2337,0.234,0.2394,0.2418,0.2432,0.2444,0.2293,0.2292,0.2292,0,0,0.2269,0.2279,0.2295,0.2307,0.2329,0.2337,0.2344,0.2363,0.2371,0.2379,0.2383,0.2407,0.2374,0.2399,0.2396,0.2423,0.2408,0.2391,0.2462,0.2484,0.2496,0.2508,0.2529,0.2542,0.2382,0.2382,0.2382,0,0.228,0.23,0.2303,0.2319,0.2337,0.2341,0.2366,0.2372,0.2389,0.2414,0.2383,0.2416,0.2409,0.2454,0.2474,0.2439,0.2443,0.2442,0.2493,0.2505,0.2516,0.2534,0.2548,0.2385,0.2385,0.2384,0.2384,0,0.2307,0.232,0.233,0.2353,0.2364,0.2389,0.24,0.2419,0.242,0.2434,0.2477,0.2481,0.2506,0.2496,0.2498,0.2572,0.2546,0.2503,0.2488,0.2533,0.2549,0.2562,0.2389,0.2388,0.2387,0.2386,0,0,0.2371,0.2356,0.2365,0.2359,0.2391,0.2393,0.2432,0.2476,0.2492,0.2513,0.255,0.2596,0.2612,0.2618,0.2617,0.2658,0.2736,0.2626,0.2625,0.2662,0.2786,0.2815,0.2831,0.2689,0.2692,0.2694,0.2759,0,0.241,0.2417,0.2418,0.2429,0.2436,0.2455,0.2475,0.2505,0.2523,0.2549,0.2598,0.2614,0.2644,0.2646,0.2706,0.2724,0.2777,0.2724,0.2727,0.2728,0.2761,0.2851,0.2827,0.2889,0.2772,0.2775,0.2776,0,0.245,0.2452,0.246,0.2444,0.2452,0.2455,0.2494,0.2512,0.2567,0.2581,0.2649,0.2661,0.2764,0.2739,0.2858,0.2814,0.2839,0.2852,0.2852,0.2888,0.2785,0.2827,0.2918,0.2771,0.2797,0.2795,0.2794,0,0.2465,0.2476,0.2471,0.2472,0.2466,0.248,0.2488,0.2531,0.2538,0.2605,0.2616,0.272,0.2745,0.2822,0.2898,0.2865,0.3004,0.293,0.299,0.2989,0.2985,0.2981,0.296,0.3034,0.3034,0.3034,0.3034,0,0.2496,0.2479,0.2462,0.2459,0.2437,0.2457,0.245,0.2478,0.2523,0.2537,0.2625,0.2664,0.2769,0.2853,0.2917,0.3027,0.3017,0.3065,0.3034,0.2998,0.2994,0.2877,0.2776,0.3036,0.3036,0.3035,0.3035,0,0.2447,0.246,0.2423,0.2429,0.2423,0.239,0.2383,0.2387,0.245,0.2476,0.2499,0.2626,0.2769,0.2884,0.3,0.3037,0.304,0.316,0.3125,0.3093,0.3006,0.2908,0.2844,0.2749,0.3235,0.3237,0.3238,0,0.2389,0.238,0.2359,0.2334,0.2318,0.2289,0.2278,0.2329,0.2342,0.2455,0.2469,0.263,0.2732,0.2945,0.3105,0.3252,0.3096,0.325,0.3211,0.306,0.2926,0.2783,0.2694,0.3201,0.3202,0.3203,0.3204,0,0.2286,0.2284,0.2264,0.2226,0.2199,0.2147,0.2148,0.2156,0.2242,0.2294,0.2385,0.2481,0.2766,0.2939,0.3171,0.3256,0.3079,0.3269,0.3116,0.2944,0.2784,0.2655,0.3082,0.321,0.3209,0.3209,0.3208,0.3208,0.2183,0.2139,0.2144,0.2084,0.2062,0.2022,0.1974,0.2028,0.2053,0.215,0.2291,0.2457,0.2751,0.3116,0.3173,0.3239,0.3151,0.314,0.3048,0.2927,0.2808,0.3274,0.336,0.336,0.336,0.336,0.336,0,0.2053,0.2047,0.2004,0.1946,0.189,0.191,0.1895,0.1865,0.1896,0.2072,0.2177,0.2522,0.2727,0.2949,0.3122,0.3009,0.2896,0.288,0.2647,0.2579,0.3013,0.2985,0.299,0.299,0.299,0.299,0.299,0.299,0.1998,0.1939,0.1925,0.1804,0.1764,0.166,0.164,0.1639,0.1737,0.1894,0.2104,0.235,0.262,0.28,0.2768,0.2717,0.2415,0.2365,0.2238,0.251,0.2524,0.2538,0.2489,0.239,0.2389,0.1776,0.1771,0.1767]},{"header":{"parameterUnit":"m.s-1","parameterCategory":2,"la1":30.2991,"la2":30.254,"lo1":-89.0895,"lo2":-89.0444,"dy":0.0017,"dx":0.0017,"nx":28,"ny":28,"refTime":"2025-01-25T03:00:00:Z","depth":"0","parameterNumber":3,"parameterNumberName":"V-component_of_CURRENTS"},"data":[0,0,0,0,0,0,0,0,0,0,0,0,0,0,0,0,0,0,0,0,0,0,0,0,0,0,0,0,0,0,0,0,0,0,0,0,0,0,0,0,0,0,0,0,0,0,0,0,0,0,0,0,0,0,0,0,0,0,-0.0095,-0.0096,0,-0.0142,-0.0142,-0.0143,-0.0179,-0.0179,-0.0179,-0.018,-0.0275,-0.0277,-0.0279,0,0,0,0,0,0,0,0,0,0,0,0,0,-0.0059,-0.006,-0.0095,-0.0096,-0.0096,-0.0141,-0.0142,-0.0143,-0.0179,-0.0179,-0.0179,-0.018,-0.0274,-0.0277,-0.0279,0,0,0,0,0,0,0,0,0,0,0,0,0,-0.0088,-0.006,-0.0095,-0.0119,-0.0121,-0.0141,-0.0142,-0.0143,-0.0179,-0.0179,-0.018,-0.018,-0.0273,-0.0276,-0.028,-0.0294,0,0,-0.029,-0.0292,0,0,0,0,0,0,0,0,-0.0087,-0.009,-0.0115,-0.0117,-0.012,-0.0154,-0.0164,-0.0196,-0.0179,-0.0158,-0.018,-0.018,-0.0238,-0.0244,-0.0253,-0.0299,-0.0303,-0.0291,-0.0293,-0.0294,-0.0295,0,0,0,0,0,0,0,-0.0085,-0.0088,-0.0115,-0.0115,-0.0118,-0.0134,-0.0139,-0.017,-0.0197,-0.016,-0.0163,-0.0165,-0.024,-0.025,-0.0256,-0.0304,-0.0291,-0.0294,-0.0296,-0.0297,-0.0376,-0.0376,0,0,0,0,0,0,-0.0075,-0.0086,-0.0114,-0.0116,-0.0102,-0.0134,-0.0139,-0.0144,-0.0196,-0.0204,-0.0165,-0.0167,-0.0244,-0.0252,-0.0259,-0.0234,-0.0294,-0.0298,-0.03,-0.0376,-0.0376,-0.0376,0,0,0,0,0,0,-0.0074,-0.0077,-0.0112,-0.0101,-0.0107,-0.0134,-0.0139,-0.0144,-0.0152,-0.0199,-0.0208,-0.0167,-0.0244,-0.0254,-0.0286,-0.0239,-0.0299,-0.0302,-0.0376,-0.0376,-0.0376,-0.0212,0,0,0,0,0,0,-0.0073,-0.0076,-0.0074,-0.01,-0.0107,-0.0115,-0.0139,-0.0145,-0.0153,-0.0156,-0.0204,-0.0213,-0.0245,-0.028,-0.0289,-0.0245,-0.0305,-0.0376,-0.0376,-0.0376,-0.0217,-0.0206,-0.0197,0,0,0,0,0,-0.0071,-0.0064,-0.0074,-0.0077,-0.0103,-0.0115,-0.0119,-0.0141,-0.0153,-0.0151,-0.0187,-0.0212,-0.0287,-0.0283,-0.0293,-0.0249,-0.0376,-0.0376,-0.0376,-0.0222,-0.0209,-0.0197,0,0,0,0,0,0,-0.005,-0.0068,-0.0079,-0.0079,-0.0092,-0.012,-0.012,-0.0136,-0.0162,-0.0167,-0.0212,-0.0224,-0.0237,-0.028,-0.0275,-0.0279,-0.0335,-0.0337,-0.0215,-0.0203,-0.0193,-0.0066,-0.0308,0,0,0,0,0,-0.0043,-0.0042,-0.0063,-0.0063,-0.0067,-0.0093,-0.01,-0.0114,-0.014,-0.0152,-0.0184,-0.0223,-0.0246,-0.0253,-0.0295,-0.0292,-0.0306,-0.0276,-0.0265,-0.0256,-0.0164,-0.0166,-0.0144,-0.0376,-0.0376,-0.0376,0,0,-0.0036,-0.0045,-0.0046,-0.0058,-0.0072,-0.005,-0.0098,-0.0104,-0.0069,-0.0159,-0.0137,-0.0197,-0.0245,-0.0242,-0.025,-0.0265,-0.0216,-0.0256,-0.0247,-0.0158,-0.0163,-0.0139,-0.0118,-0.0376,-0.0376,-0.0376,0,0,-0.0005,-0.0028,-0.0008,-0.0011,-0.0021,-0.0027,-0.0024,-0.0048,-0.0042,-0.0048,-0.0091,-0.0097,-0.0169,-0.0147,-0.0156,-0.0113,-0.0174,-0.0171,0.0011,0.0006,0.0028,0.0047,0.0001,0.0015,-0.0149,-0.0148,-0.0148,0,0.001,0.0046,-0.0004,0.0022,0.0061,-0.0006,0.0058,0.0039,0.0012,0.007,-0.0027,-0.0026,-0.0094,0.0004,0.0006,-0.0074,-0.0117,-0.0026,0.0029,0.0047,0.0064,0.0013,0.0026,-0.014,-0.0141,-0.0142,-0.0143,0,0.0069,0.0102,0.0115,0.0145,0.0164,0.0202,0.0192,0.0216,0.0199,0.0208,0.0266,0.0175,0.0207,0.0151,0.009,0.0193,0.0105,0.0031,0.0019,0.0099,0.0036,0.0047,-0.0129,-0.0132,-0.0134,-0.0136,0,0,0.0139,0.0162,0.0174,0.025,0.0256,0.03,0.0363,0.0461,0.0557,0.0493,0.0625,0.0572,0.054,0.053,0.0446,0.0444,0.0469,0.0301,0.0297,0.0296,0.0425,0.0323,0.0323,0.0388,0.0392,0.0395,0.0313,0,0.0235,0.0336,0.0326,0.0469,0.0551,0.0553,0.0637,0.0703,0.0715,0.0792,0.0764,0.0788,0.0673,0.0663,0.0667,0.0498,0.0515,0.0498,0.0317,0.0313,0.0247,0.0341,0.0401,0.0333,0.0324,0.0326,0.0327,0,0.0346,0.0415,0.0561,0.0719,0.0758,0.0821,0.1019,0.1073,0.1151,0.1155,0.1208,0.1124,0.1143,0.0978,0.0876,0.0853,0.0703,0.0568,0.0559,0.0448,0.0237,0.0257,0.0353,0.0178,0.0343,0.0342,0.0341,0,0.0503,0.0617,0.0766,0.0805,0.0925,0.1036,0.1109,0.1212,0.1281,0.1369,0.138,0.1412,0.1335,0.1229,0.0938,0.0902,0.0767,0.0668,0.047,0.0456,0.0478,0.046,0.0441,0.0667,0.0667,0.0668,0.0668,0,0.0662,0.079,0.0848,0.0936,0.1131,0.1183,0.1376,0.1444,0.1524,0.1598,0.1561,0.157,0.1381,0.1245,0.1042,0.0783,0.0852,0.0569,0.0467,0.052,0.0509,0.0329,0.022,0.0664,0.0665,0.0666,0.0666,0,0.0799,0.0843,0.1008,0.1149,0.1198,0.133,0.1457,0.1571,0.1632,0.1706,0.1715,0.1657,0.1493,0.129,0.1048,0.0858,0.0563,0.0547,0.0598,0.0508,0.0172,0.0069,0.0004,-0.0035,0.0361,0.0359,0.0357,0,0.0873,0.0965,0.1109,0.1174,0.123,0.1395,0.149,0.1607,0.1683,0.1736,0.1758,0.1647,0.1567,0.1205,0.0925,0.0638,0.0476,0.0442,0.043,0.0231,0.004,-0.0008,-0.0037,0.0484,0.0484,0.0483,0.0482,0,0.0981,0.1011,0.1106,0.1221,0.1331,0.1464,0.1595,0.167,0.1777,0.1825,0.1821,0.1768,0.1484,0.1233,0.085,0.064,0.0369,0.0414,0.0236,0.0201,0.0133,0.0018,0.0407,0.0477,0.0477,0.0478,0.0478,0.0478,0.0998,0.1052,0.1126,0.1243,0.136,0.1484,0.1579,0.1689,0.1798,0.1845,0.1834,0.1776,0.1497,0.102,0.0726,0.027,0.0285,0.0119,0.0022,0.0002,-0.0037,0.0318,0.0242,0.0241,0.024,0.024,0.0239,0,0.0979,0.1033,0.1134,0.1259,0.1358,0.144,0.1602,0.1665,0.1753,0.1824,0.1824,0.1695,0.1317,0.0924,0.0361,-0.0028,-0.0091,-0.0249,-0.0251,-0.0253,0.0096,0.01,-0.004,-0.004,-0.004,-0.004,-0.004,-0.004,0.096,0.1021,0.1075,0.1204,0.1296,0.1409,0.149,0.1574,0.1651,0.1686,0.1697,0.1715,0.1451,0.0504,-0.0205,-0.0373,-0.0592,-0.0656,-0.0793,-0.0544,-0.0515,-0.0487,-0.0506,-0.0771,-0.0772,-0.1012,-0.1016,-0.1018]}],[{"header":{"parameterUnit":"m.s-1","parameterCategory":2,"la1":30.2991,"la2":30.254,"lo1":-89.0895,"lo2":-89.0444,"dy":0.0017,"dx":0.0017,"nx":28,"ny":28,"refTime":"2025-01-25T03:00:00:Z","depth":"2","parameterNumber":2,"parameterNumberName":"U-component_of_CURRENTS"},"data":[0,0,0,0,0,0,0,0,0,0,0,0,0,0,0,0,0,0,0,0,0,0,0,0,0,0,0,0,0,0,0,0,0,0,0,0,0,0,0,0,0,0,0,0,0,0,0,0,0,0,0,0,0,0,0,0,0,0,0.2054,0.2055,0,0.2099,0.2099,0.2099,0.211,0.211,0.211,0.211,0.2158,0.2159,0.2161,0,0,0,0,0,0,0,0,0,0,0,0,0,0.1977,0.1978,0.2054,0.2055,0.2056,0.2099,0.2099,0.2099,0.211,0.211,0.211,0.211,0.2158,0.2159,0.2161,0,0,0,0,0,0,0,0,0,0,0,0,0,0.2012,0.1979,0.2054,0.2069,0.207,0.2099,0.2099,0.2099,0.211,0.211,0.211,0.211,0.2157,0.2159,0.2161,0.2174,0,0,0.2167,0.2168,0,0,0,0,0,0,0,0,0.201,0.2015,0.2066,0.2068,0.207,0.2101,0.209,0.2126,0.211,0.2092,0.211,0.211,0.2142,0.2145,0.2149,0.2176,0.2178,0.2167,0.2168,0.2169,0.217,0,0,0,0,0,0,0,0.2008,0.2013,0.2069,0.2067,0.2069,0.2073,0.2077,0.2096,0.2114,0.2093,0.2095,0.2105,0.2142,0.2147,0.215,0.2179,0.2167,0.2169,0.217,0.2171,0.2266,0.2268,0,0,0,0,0,0,0.2009,0.2011,0.2067,0.207,0.2043,0.2074,0.2079,0.2089,0.2114,0.2118,0.2105,0.2105,0.2143,0.2148,0.2152,0.2252,0.2169,0.2171,0.2172,0.2265,0.2267,0.2268,0,0,0,0,0,0,0.2007,0.2013,0.2066,0.2044,0.2051,0.2076,0.2086,0.209,0.2103,0.2123,0.2127,0.2116,0.2144,0.2149,0.218,0.225,0.2172,0.2174,0.2264,0.2266,0.2268,0.2398,0,0,0,0,0,0,0.2005,0.2012,0.2023,0.2044,0.2053,0.2093,0.2087,0.2091,0.2111,0.2112,0.2134,0.2138,0.2144,0.2177,0.2182,0.2252,0.2175,0.2262,0.2264,0.2267,0.2392,0.2404,0.2414,0,0,0,0,0,0.2002,0.2013,0.2023,0.203,0.2065,0.2094,0.2099,0.2113,0.2111,0.2124,0.2138,0.2138,0.2197,0.218,0.2185,0.2257,0.2261,0.2264,0.2267,0.2387,0.2401,0.2414,0,0,0,0,0,0,0.1986,0.2016,0.2027,0.2048,0.2076,0.2097,0.211,0.2119,0.2139,0.2141,0.2151,0.2156,0.2223,0.2202,0.2182,0.2287,0.2231,0.2235,0.232,0.2334,0.2346,0.2396,0.2177,0,0,0,0,0,0.1989,0.2004,0.2036,0.2054,0.2068,0.209,0.2105,0.2119,0.2138,0.2147,0.2163,0.2184,0.2238,0.2253,0.2283,0.2325,0.2322,0.2373,0.2384,0.2394,0.2436,0.2466,0.2486,0.2278,0.2278,0.2278,0,0,0.1988,0.2007,0.2016,0.2052,0.2071,0.2111,0.2098,0.2126,0.219,0.215,0.2222,0.2231,0.2258,0.2327,0.2353,0.2318,0.2447,0.2398,0.2407,0.2444,0.2472,0.2492,0.2511,0.228,0.228,0.228,0,0,0.1997,0.2012,0.2032,0.2058,0.2096,0.2123,0.2134,0.2165,0.2212,0.2272,0.2281,0.2329,0.2368,0.2423,0.2455,0.254,0.2515,0.2532,0.263,0.2659,0.2677,0.2693,0.2703,0.2719,0.2528,0.2528,0.2529,0,0.2,0.2051,0.2043,0.2074,0.2132,0.2133,0.2201,0.2239,0.2281,0.2354,0.231,0.2423,0.2438,0.2569,0.2603,0.2578,0.2566,0.2582,0.2678,0.2693,0.2708,0.2714,0.273,0.2535,0.2534,0.2534,0.2533,0,0.2047,0.2085,0.2101,0.2159,0.2199,0.2261,0.2321,0.2386,0.2433,0.2474,0.2599,0.2602,0.2661,0.2683,0.2679,0.28,0.2748,0.2698,0.2651,0.2737,0.2737,0.2752,0.2545,0.2542,0.254,0.2539,0,0,0.211,0.2134,0.2159,0.2218,0.2276,0.2334,0.2448,0.2589,0.2679,0.2715,0.2832,0.2929,0.2887,0.2919,0.29,0.2942,0.3029,0.2866,0.2864,0.2892,0.3076,0.2894,0.2892,0.2981,0.2984,0.2987,0.3031,0,0.219,0.2272,0.2283,0.2412,0.2475,0.2541,0.2643,0.2751,0.2822,0.2905,0.2962,0.3015,0.2984,0.2983,0.3034,0.3026,0.3074,0.3022,0.2975,0.2975,0.2817,0.2906,0.2692,0.27,0.3045,0.3047,0.3049,0,0.2314,0.2338,0.2457,0.2579,0.2621,0.2682,0.2894,0.2968,0.3073,0.3115,0.3166,0.3149,0.3231,0.3147,0.3225,0.3179,0.3157,0.3149,0.3148,0.2954,0.2822,0.267,0.2712,0.3072,0.307,0.3068,0.3067,0,0.2446,0.2532,0.2646,0.268,0.2755,0.2859,0.2921,0.3034,0.3114,0.3189,0.3215,0.3286,0.3283,0.3304,0.3268,0.3244,0.3318,0.3265,0.3103,0.3088,0.2889,0.2849,0.3343,0.3343,0.3343,0.3343,0.3343,0,0.2599,0.2694,0.2698,0.275,0.2875,0.2914,0.3046,0.3124,0.3187,0.3219,0.3266,0.3262,0.3319,0.334,0.3315,0.324,0.3345,0.3158,0.3102,0.292,0.2886,0.3189,0.3171,0.3345,0.3344,0.3344,0.3344,0,0.2716,0.2743,0.2831,0.2894,0.292,0.2986,0.3057,0.3131,0.3185,0.3217,0.3226,0.3277,0.3265,0.3323,0.3339,0.3266,0.3231,0.318,0.2952,0.2867,0.2978,0.2966,0.3022,0.3017,0.3012,0.3008,0.3004,0,0.2778,0.2824,0.2883,0.2907,0.292,0.2989,0.3029,0.3102,0.3124,0.3169,0.3162,0.3201,0.3124,0.3109,0.3043,0.3001,0.3112,0.276,0.2686,0.3013,0.2954,0.2949,0.2943,0.248,0.2473,0.2467,0.2462,0,0.2822,0.2843,0.2887,0.2914,0.2956,0.2996,0.3029,0.3038,0.3073,0.3043,0.2952,0.2895,0.2878,0.269,0.2675,0.2613,0.2748,0.2627,0.3059,0.2567,0.2497,0.2439,0.2454,0.2408,0.2413,0.2417,0.242,0.2423,0.2832,0.2853,0.2898,0.2929,0.2968,0.2968,0.2952,0.29,0.2834,0.2694,0.2688,0.2488,0.2484,0.2292,0.2209,0.2196,0.2371,0.228,0.2302,0.233,0.2231,0.2154,0.1983,0.1986,0.1988,0.199,0.1992,0,0.2827,0.287,0.2903,0.293,0.2935,0.2983,0.2939,0.2785,0.2565,0.2433,0.2244,0.1932,0.1794,0.1855,0.1738,0.17,0.1727,0.1643,0.1689,0.1742,0.1789,0.1667,0.1267,0.1265,0.1263,0.1261,0,0,0.2833,0.2855,0.2863,0.2865,0.2901,0.2867,0.2814,0.2498,0.2311,0.188,0.1714,0.1699,0.1769,0.1488,0.145,0.1356,0.1545,0.1298,0.1881,0.199,0.2035,0.2154,0.2023,0,0,0,0,0]},{"header":{"parameterUnit":"m.s-1","parameterCategory":2,"la1":30.2991,"la2":30.254,"lo1":-89.0895,"lo2":-89.0444,"dy":0.0017,"dx":0.0017,"nx":28,"ny":28,"refTime":"2025-01-25T03:00:00:Z","depth":"2","parameterNumber":3,"parameterNumberName":"V-component_of_CURRENTS"},"data":[0,0,0,0,0,0,0,0,0,0,0,0,0,0,0,0,0,0,0,0,0,0,0,0,0,0,0,0,0,0,0,0,0,0,0,0,0,0,0,0,0,0,0,0,0,0,0,0,0,0,0,0,0,0,0,0,0,0,0.014,0.0139,0,0.0097,0.0096,0.0096,0.0066,0.0066,0.0066,0.0065,0.0016,0.0015,0.0014,0,0,0,0,0,0,0,0,0,0,0,0,0,0.0147,0.0147,0.014,0.0139,0.0138,0.0097,0.0096,0.0096,0.0066,0.0066,0.0065,0.0065,0.0017,0.0015,0.0014,0,0,0,0,0,0,0,0,0,0,0,0,0,0.0128,0.0147,0.014,0.0119,0.0116,0.0097,0.0096,0.0096,0.0066,0.0066,0.0065,0.0065,0.0017,0.0016,0.0014,0.0011,0,0,0.0009,0.0008,0,0,0,0,0,0,0,0,0.0129,0.0128,0.0122,0.012,0.0117,0.0086,0.0081,0.0067,0.0066,0.0085,0.0065,0.0065,0.0039,0.0036,0.0029,0.0009,0.0007,0.0009,0.0008,0.0007,0.0007,0,0,0,0,0,0,0,0.0131,0.0129,0.0123,0.0122,0.0119,0.0094,0.0092,0.0078,0.0065,0.0084,0.0081,0.0076,0.0038,0.0031,0.0028,0.0006,0.0009,0.0007,0.0006,0.0006,-0.004,-0.004,0,0,0,0,0,0,0.0139,0.0131,0.0124,0.0121,0.0122,0.0095,0.0092,0.0097,0.0065,0.006,0.0077,0.0075,0.0033,0.0029,0.0026,0.0018,0.0007,0.0006,0.0005,-0.004,-0.004,-0.004,0,0,0,0,0,0,0.0139,0.0139,0.0126,0.0124,0.0121,0.0096,0.0101,0.0096,0.0088,0.006,0.0055,0.0073,0.0033,0.0028,0.0025,0.0016,0.0005,0.0003,-0.0039,-0.004,-0.004,0.0004,0,0,0,0,0,0,0.014,0.014,0.0145,0.0125,0.0121,0.0121,0.0101,0.0095,0.0085,0.0083,0.0055,0.005,0.0032,0.0027,0.0023,0.0014,0.0002,-0.0039,-0.004,-0.004,0.0003,0.0006,0.0008,0,0,0,0,0,0.014,0.0156,0.0145,0.0144,0.013,0.0121,0.0117,0.0097,0.0086,0.0087,0.0074,0.0051,0.002,0.0027,0.0021,0.0011,-0.0039,-0.0039,-0.004,0.0002,0.0005,0.0007,0,0,0,0,0,0,0.0163,0.0153,0.0142,0.0153,0.0139,0.0116,0.0117,0.01,0.009,0.0088,0.0061,0.0056,0.0041,0.0024,0.0032,-0.0006,-0.0019,-0.002,0.0015,0.0017,0.002,0.0084,0.0001,0,0,0,0,0,0.0169,0.0177,0.016,0.0167,0.0164,0.0139,0.0132,0.0118,0.0105,0.01,0.0082,0.0059,0.0034,0.0027,0.0004,-0.0002,-0.0032,-0.0018,-0.0015,-0.0013,0.0034,-0.0029,-0.0027,-0.0042,-0.0042,-0.0042,0,0,0.0177,0.0174,0.0176,0.0171,0.0159,0.0161,0.0135,0.0129,0.0134,0.0097,0.0102,0.0067,0.0033,0.0019,0.001,0.0007,-0.0034,-0.0014,-0.0012,0.0036,-0.0029,-0.0027,-0.0026,-0.0042,-0.0042,-0.0042,0,0,0.0197,0.0197,0.0207,0.0203,0.0189,0.0178,0.0178,0.016,0.0157,0.015,0.012,0.0101,0.0061,0.0048,0.003,0.0035,-0.0025,0.0001,0.0072,0.0009,0.0011,0.0012,-0.0061,-0.0066,0.0007,0.0007,0.0007,0,0.0205,0.0219,0.0208,0.0217,0.0218,0.019,0.02,0.0195,0.0178,0.0193,0.0157,0.0116,0.008,0.008,0.008,0.0043,-0.0008,0.0064,0.0014,0.0014,0.0015,-0.006,-0.0066,0.0009,0.0009,0.0009,0.0009,0,0.0228,0.024,0.0249,0.0253,0.0254,0.0259,0.0251,0.027,0.0252,0.0239,0.0232,0.0182,0.0169,0.0129,0.011,0.0097,0.0052,0.0017,0.0012,0.0019,-0.0061,-0.0068,0.0012,0.0012,0.0011,0.001,0,0,0.0236,0.0261,0.0265,0.029,0.0276,0.0294,0.0316,0.0338,0.036,0.0332,0.0338,0.0306,0.0281,0.0264,0.0215,0.0172,0.0106,0.0109,0.0105,0.0049,-0.0049,-0.0017,-0.0024,0.0049,0.0049,0.0049,-0.0118,0,0.0253,0.0291,0.0296,0.0342,0.0357,0.0371,0.0395,0.0415,0.0396,0.0395,0.0364,0.0333,0.0326,0.0294,0.0263,0.013,0.0094,0.0155,-0.0053,-0.0058,-0.0022,-0.0027,-0.0006,-0.0146,-0.0126,-0.0128,-0.0129,0,0.0269,0.029,0.0334,0.0403,0.0415,0.0455,0.0511,0.0524,0.0522,0.0499,0.0491,0.043,0.0394,0.0348,0.021,0.0241,0.0136,0.0035,0.0024,0.0052,-0.0038,-0.0144,-0.0162,-0.0142,-0.0141,-0.014,-0.0139,0,0.0279,0.0335,0.0383,0.0398,0.045,0.0518,0.056,0.0573,0.0563,0.0561,0.0513,0.0483,0.0411,0.0311,0.0167,0.016,-0.0022,-0.0079,-0.0137,-0.0139,-0.0153,-0.0154,-0.0156,-0.0156,-0.0156,-0.0155,-0.0155,0,0.0289,0.0329,0.0416,0.0443,0.0505,0.0558,0.0603,0.0642,0.0626,0.06,0.0572,0.053,0.0393,0.0278,0.0164,0.0011,-0.0019,-0.01,-0.0164,-0.0142,-0.0139,-0.0147,-0.0144,-0.0162,-0.016,-0.0159,-0.0158,0,0.0254,0.0314,0.0368,0.0469,0.0505,0.0552,0.0604,0.0617,0.0629,0.058,0.0571,0.0513,0.0416,0.0283,0.0084,-0.0013,-0.016,-0.0201,-0.0154,-0.0205,-0.0248,-0.024,-0.0316,-0.0316,-0.0316,-0.0316,-0.0316,0,0.0231,0.026,0.0362,0.0396,0.0447,0.0516,0.0539,0.0592,0.058,0.0583,0.0545,0.0481,0.0469,0.0226,0.0058,-0.0123,-0.0139,-0.0254,-0.0231,-0.02,-0.0257,-0.025,-0.0243,-0.0276,-0.0275,-0.0275,-0.0275,0,0.0174,0.0225,0.0279,0.0339,0.0403,0.0422,0.0488,0.0475,0.0529,0.056,0.0615,0.0636,0.045,0.0313,0.0074,-0.0049,-0.0216,-0.0252,-0.0264,-0.0203,-0.0166,-0.022,-0.0214,-0.0272,-0.0272,-0.0273,-0.0273,-0.0273,0.0147,0.016,0.0265,0.0313,0.036,0.0393,0.0428,0.0508,0.0577,0.0674,0.0664,0.0733,0.0526,0.0279,0.0071,-0.0161,-0.0165,-0.0277,-0.0277,-0.0278,-0.0207,-0.0168,-0.0265,-0.0265,-0.0265,-0.0265,-0.0265,0,0.0161,0.0205,0.0238,0.033,0.0364,0.0403,0.0434,0.0505,0.0662,0.0742,0.086,0.0715,0.0556,0.0338,0.0,-0.021,-0.0233,-0.0273,-0.0269,-0.0271,-0.0272,-0.02,-0.0257,-0.0257,-0.0258,-0.0258,0,0,0.0198,0.0251,0.0263,0.0344,0.0402,0.0465,0.0499,0.0639,0.0718,0.0888,0.0943,0.0919,0.063,0.0386,0.0112,-0.0073,-0.0123,-0.0104,-0.0093,-0.0058,-0.0057,-0.0259,-0.0147,0,0,0,0,0]}],[{"header":{"parameterUnit":"m.s-1","parameterCategory":2,"la1":30.2991,"la2":30.254,"lo1":-89.0895,"lo2":-89.0444,"dy":0.0017,"dx":0.0017,"nx":28,"ny":28,"refTime":"2025-01-25T03:00:00:Z","depth":"4","parameterNumber":2,"parameterNumberName":"U-component_of_CURRENTS"},"data":[0,0,0,0,0,0,0,0,0,0,0,0,0,0,0,0,0,0,0,0,0,0,0,0,0,0,0,0,0,0,0,0,0,0,0,0,0,0,0,0,0,0,0,0,0,0,0,0,0,0,0,0,0,0,0,0,0,0,0.1185,0.1185,0,0.1212,0.1212,0.1212,0.1243,0.1244,0.1244,0.1245,0.1258,0.1258,0.1258,0,0,0,0,0,0,0,0,0,0,0,0,0,0.1138,0.1138,0.1185,0.1185,0.1186,0.1212,0.1212,0.1212,0.1243,0.1244,0.1245,0.1245,0.1259,0.1258,0.1258,0,0,0,0,0,0,0,0,0,0,0,0,0,0.1158,0.1138,0.1185,0.1206,0.1209,0.1212,0.1212,0.1212,0.1243,0.1244,0.1245,0.1246,0.1259,0.1258,0.1258,0.1234,0,0,0.1256,0.1256,0,0,0,0,0,0,0,0,0.1157,0.116,0.1203,0.1205,0.1208,0.1228,0.1201,0.122,0.1242,0.1227,0.1245,0.1246,0.1248,0.1248,0.1247,0.1234,0.1235,0.1256,0.1256,0.1256,0.1256,0,0,0,0,0,0,0,0.1156,0.1159,0.1193,0.1203,0.1206,0.1208,0.1211,0.1204,0.1229,0.1228,0.1231,0.1238,0.1249,0.1248,0.1248,0.1235,0.1256,0.1256,0.1256,0.1255,0.1324,0.1326,0,0,0,0,0,0,0.1158,0.1157,0.1192,0.1194,0.1187,0.1208,0.1212,0.1218,0.1229,0.1233,0.1237,0.124,0.1248,0.1248,0.1249,0.1278,0.1256,0.1255,0.1255,0.1322,0.1324,0.1327,0,0,0,0,0,0,0.1157,0.116,0.1191,0.1178,0.1183,0.1208,0.1214,0.1218,0.1247,0.1237,0.124,0.1267,0.1249,0.1249,0.1264,0.1277,0.1255,0.1255,0.1319,0.1323,0.1325,0.1301,0,0,0,0,0,0,0.1155,0.116,0.1175,0.1178,0.1184,0.1211,0.1213,0.1218,0.1249,0.1254,0.1262,0.1263,0.125,0.1265,0.1264,0.1276,0.1254,0.1317,0.1321,0.1324,0.1299,0.1303,0.1306,0,0,0,0,0,0.1153,0.1163,0.1176,0.1181,0.1201,0.1212,0.1215,0.1234,0.125,0.1264,0.1271,0.1264,0.1291,0.1265,0.1264,0.1276,0.1315,0.132,0.1324,0.1297,0.1302,0.1306,0,0,0,0,0,0,0.1148,0.1168,0.1181,0.1198,0.1215,0.1219,0.1236,0.125,0.1267,0.1278,0.127,0.1271,0.1294,0.1299,0.1272,0.1317,0.131,0.1314,0.1291,0.1295,0.1298,0.1364,0.1254,0,0,0,0,0,0.1155,0.1173,0.1188,0.1205,0.1216,0.1233,0.1246,0.126,0.127,0.1281,0.1291,0.1306,0.1307,0.1313,0.1321,0.133,0.1335,0.135,0.1353,0.1355,0.1414,0.1406,0.1412,0.1342,0.1342,0.1342,0,0,0.1156,0.1172,0.1182,0.1207,0.1221,0.1235,0.1243,0.127,0.1282,0.1277,0.1308,0.1316,0.1316,0.1328,0.1341,0.1334,0.1371,0.1361,0.1362,0.1422,0.1411,0.1417,0.1423,0.1345,0.1345,0.1344,0,0,0.1162,0.1185,0.1201,0.122,0.1253,0.1256,0.1272,0.1297,0.1313,0.1339,0.1337,0.1373,0.1375,0.1383,0.1381,0.1421,0.1389,0.1415,0.1475,0.1463,0.1468,0.1473,0.1442,0.1444,0.1413,0.1413,0.1413,0,0.1166,0.1187,0.1208,0.123,0.1249,0.1269,0.1289,0.1297,0.1328,0.1351,0.1359,0.1407,0.1412,0.142,0.1449,0.1428,0.1405,0.144,0.1464,0.1469,0.1474,0.1442,0.1444,0.1413,0.1413,0.1413,0.1413,0,0.1169,0.1205,0.1217,0.1249,0.1272,0.1291,0.1309,0.1334,0.1364,0.139,0.1437,0.1449,0.1492,0.1484,0.1483,0.1521,0.1484,0.1458,0.144,0.1479,0.1442,0.1446,0.1412,0.1412,0.1412,0.1412,0,0,0.1122,0.1204,0.1209,0.1239,0.1287,0.1296,0.1324,0.1356,0.1376,0.1433,0.1471,0.1518,0.1563,0.1573,0.1561,0.1574,0.1579,0.1548,0.1547,0.1497,0.1529,0.1454,0.145,0.153,0.1532,0.1533,0.1469,0,0.1117,0.1165,0.1207,0.1249,0.1274,0.1313,0.1337,0.1378,0.1406,0.1445,0.1497,0.1536,0.1573,0.159,0.1616,0.1577,0.1596,0.16,0.1523,0.1523,0.1433,0.1456,0.1539,0.1472,0.1473,0.1473,0.1474,0,0.1092,0.1136,0.1187,0.1262,0.1276,0.131,0.135,0.1373,0.1434,0.1457,0.1529,0.157,0.1626,0.1643,0.1645,0.1631,0.1629,0.1603,0.1598,0.156,0.1457,0.1442,0.1479,0.1479,0.1478,0.1478,0.1478,0,0.1025,0.1111,0.1154,0.118,0.1266,0.1305,0.1345,0.1403,0.1424,0.1481,0.1516,0.1571,0.1599,0.1611,0.164,0.1623,0.1623,0.1565,0.1501,0.1493,0.1585,0.1582,0.1615,0.1615,0.1615,0.1615,0.1615,0,0.0979,0.1014,0.1141,0.1158,0.1212,0.1292,0.1329,0.1365,0.1431,0.1459,0.1543,0.1557,0.1601,0.1623,0.163,0.1582,0.1615,0.1545,0.1488,0.1571,0.1567,0.1584,0.1581,0.1613,0.1613,0.1614,0.1614,0,0.0892,0.0974,0.1028,0.1142,0.1186,0.1225,0.1323,0.1334,0.1413,0.1444,0.1479,0.1544,0.1543,0.159,0.1576,0.1546,0.1515,0.151,0.1607,0.1551,0.1383,0.138,0.1373,0.137,0.1367,0.1365,0.1364,0,0.0847,0.0875,0.0998,0.1039,0.1103,0.1176,0.1215,0.1305,0.1319,0.1418,0.1423,0.1485,0.1518,0.1433,0.1475,0.1457,0.1474,0.1438,0.1435,0.1421,0.1366,0.1367,0.1367,0.136,0.1359,0.1359,0.1358,0,0.0769,0.0828,0.0877,0.0962,0.1027,0.1062,0.1139,0.1142,0.1235,0.1323,0.1341,0.1371,0.1367,0.1354,0.1383,0.1376,0.1431,0.1413,0.1417,0.1413,0.1405,0.1353,0.1356,0.135,0.1351,0.1352,0.1352,0,0.072,0.0732,0.0818,0.088,0.0946,0.0959,0.0993,0.1038,0.1078,0.1215,0.1202,0.1276,0.1336,0.1313,0.1326,0.1323,0.129,0.1246,0.1258,0.1267,0.127,0.1247,0.1116,0,0,0,0,0,0.0677,0.0691,0.0734,0.08,0.085,0.0892,0.0953,0.0986,0.1082,0.1069,0.1147,0.1158,0.1177,0.1201,0.1173,0.1255,0.1283,0.1215,0.1235,0.1304,0.1314,0.1331,0,0,0,0,0,0,0.0656,0.0696,0.0709,0.0728,0.0749,0.0791,0.0817,0.0876,0.0877,0.0987,0.0997,0.1098,0.1121,0.1191,0.1157,0.1168,0.1157,0.1271,0.1268,0.1299,0.1307,0.1315,0.1336,0,0,0,0,0]},{"header":{"parameterUnit":"m.s-1","parameterCategory":2,"la1":30.2991,"la2":30.254,"lo1":-89.0895,"lo2":-89.0444,"dy":0.0017,"dx":0.0017,"nx":28,"ny":28,"refTime":"2025-01-25T03:00:00:Z","depth":"4","parameterNumber":3,"parameterNumberName":"V-component_of_CURRENTS"},"data":[0,0,0,0,0,0,0,0,0,0,0,0,0,0,0,0,0,0,0,0,0,0,0,0,0,0,0,0,0,0,0,0,0,0,0,0,0,0,0,0,0,0,0,0,0,0,0,0,0,0,0,0,0,0,0,0,0,0,0.0172,0.0172,0,0.0155,0.0154,0.0154,0.0146,0.0146,0.0146,0.0146,0.0156,0.0156,0.0156,0,0,0,0,0,0,0,0,0,0,0,0,0,0.0158,0.0159,0.0172,0.0172,0.0172,0.0155,0.0154,0.0154,0.0146,0.0146,0.0146,0.0146,0.0155,0.0156,0.0156,0,0,0,0,0,0,0,0,0,0,0,0,0,0.0155,0.0159,0.0172,0.0165,0.0165,0.0155,0.0154,0.0154,0.0146,0.0146,0.0146,0.0146,0.0155,0.0156,0.0156,0.0158,0,0,0.0157,0.0157,0,0,0,0,0,0,0,0,0.0155,0.0155,0.0167,0.0166,0.0165,0.0152,0.0153,0.0157,0.0146,0.0153,0.0146,0.0146,0.0157,0.0157,0.0153,0.0158,0.0159,0.0157,0.0157,0.0158,0.0158,0,0,0,0,0,0,0,0.0155,0.0156,0.0165,0.0166,0.0165,0.015,0.015,0.0153,0.0155,0.0152,0.0152,0.015,0.0157,0.0153,0.0154,0.0159,0.0157,0.0158,0.0158,0.0158,0.0155,0.0154,0,0,0,0,0,0,0.016,0.0156,0.0166,0.0164,0.016,0.015,0.015,0.0156,0.0155,0.0154,0.015,0.0149,0.0152,0.0153,0.0154,0.0146,0.0158,0.0158,0.0158,0.0155,0.0154,0.0154,0,0,0,0,0,0,0.016,0.0161,0.0166,0.0159,0.0159,0.0151,0.0158,0.0156,0.0156,0.0153,0.0153,0.0152,0.0152,0.0154,0.0162,0.0147,0.0158,0.0158,0.0155,0.0155,0.0154,0.0137,0,0,0,0,0,0,0.016,0.0162,0.0168,0.016,0.016,0.0166,0.0158,0.0156,0.0155,0.0154,0.0155,0.0155,0.0153,0.0161,0.0162,0.0148,0.0159,0.0156,0.0155,0.0154,0.0138,0.0136,0.0134,0,0,0,0,0,0.0159,0.0172,0.0168,0.0169,0.0169,0.0167,0.0165,0.0158,0.0155,0.0158,0.0157,0.0155,0.0158,0.0162,0.0163,0.0148,0.0156,0.0155,0.0154,0.0139,0.0136,0.0134,0,0,0,0,0,0,0.0171,0.0172,0.0168,0.0181,0.0175,0.0165,0.0169,0.0162,0.0162,0.0165,0.016,0.016,0.0161,0.016,0.0165,0.0145,0.0153,0.0153,0.0141,0.0139,0.0137,0.009,0.0159,0,0,0,0,0,0.0175,0.0185,0.018,0.0189,0.0189,0.0178,0.0176,0.0172,0.017,0.017,0.0169,0.0165,0.0157,0.0154,0.0155,0.0149,0.013,0.0138,0.0136,0.0134,0.0097,0.0038,0.0027,0.0152,0.0152,0.0152,0,0,0.0181,0.0184,0.0189,0.0191,0.0187,0.0182,0.0178,0.018,0.0164,0.0172,0.0162,0.0167,0.0157,0.0148,0.0146,0.0145,0.0104,0.0134,0.0132,0.0094,0.0036,0.0024,0.0012,0.0151,0.0151,0.0151,0,0,0.019,0.0201,0.0206,0.0204,0.0201,0.0193,0.0195,0.0189,0.0177,0.0176,0.0166,0.0148,0.0164,0.0125,0.0113,0.0099,0.0101,0.012,0.0065,0.001,-0.0002,-0.0013,0.0008,-0.0001,0.0112,0.0112,0.0112,0,0.0193,0.0192,0.0206,0.0206,0.0191,0.0198,0.0182,0.0178,0.0172,0.0142,0.0176,0.0134,0.0136,0.0071,0.0068,0.0088,0.009,0.0076,0.0004,-0.0007,-0.0018,0.0005,-0.0005,0.0111,0.0111,0.0111,0.0111,0,0.0193,0.0192,0.0197,0.0192,0.0186,0.0178,0.0168,0.0157,0.0154,0.0132,0.0089,0.0088,0.0047,0.0055,0.006,-0.0021,0.0022,0.0015,0.0005,-0.0032,-0.0003,-0.0014,0.011,0.011,0.011,0.0111,0,0,0.0179,0.019,0.0188,0.0171,0.0169,0.016,0.0137,0.009,0.0062,0.0054,0.0007,-0.003,-0.0042,-0.0059,-0.006,-0.0109,-0.0152,-0.0078,-0.008,-0.0065,-0.0215,-0.0185,-0.0192,-0.0165,-0.0169,-0.0171,-0.0142,0,0.0157,0.0149,0.0155,0.0129,0.0112,0.0102,0.0077,0.0042,0.0032,0.0005,-0.0045,-0.0062,-0.0081,-0.0077,-0.0146,-0.0129,-0.0189,-0.0157,-0.0177,-0.0177,-0.0155,-0.0209,-0.0182,-0.0149,-0.0151,-0.0153,-0.0154,0,0.0124,0.0124,0.0098,0.0071,0.0062,0.005,-0.0006,-0.0022,-0.0064,-0.007,-0.0126,-0.0122,-0.0189,-0.018,-0.0262,-0.0229,-0.0252,-0.0252,-0.025,-0.0243,-0.0171,-0.0119,-0.0172,-0.0171,-0.017,-0.0168,-0.0167,0,0.0077,0.0065,0.0037,0.0032,0.0019,-0.0011,-0.0023,-0.006,-0.0055,-0.0107,-0.0074,-0.0183,-0.0161,-0.0253,-0.0251,-0.0254,-0.0305,-0.0306,-0.0318,-0.0311,-0.0335,-0.0325,-0.0426,-0.0426,-0.0426,-0.0426,-0.0427,0,0.0032,0.0015,0.0015,0.0006,-0.0019,-0.0038,-0.0056,-0.008,-0.0078,-0.0049,-0.0108,-0.0083,-0.0179,-0.0196,-0.0255,-0.0295,-0.0321,-0.0354,-0.0333,-0.0329,-0.0319,-0.0337,-0.0328,-0.0425,-0.0425,-0.0426,-0.0426,0,0.0018,0.0003,-0.0011,-0.0029,-0.0032,-0.004,-0.001,-0.0001,-0.0018,0.0036,0.0039,0.0015,-0.0021,-0.01,-0.0191,-0.0252,-0.0318,-0.0342,-0.0279,-0.0249,-0.0279,-0.027,-0.0358,-0.0358,-0.0357,-0.0357,-0.0357,0,0.0025,0.0007,0.0003,0.0019,0.0026,0.0025,0.0048,0.0034,0.0074,0.0109,0.0155,0.0133,0.0102,0.0019,-0.0111,-0.0243,-0.0284,-0.0304,-0.0381,-0.0318,-0.0288,-0.028,-0.0272,-0.0356,-0.0356,-0.0356,-0.0356,0,0.0057,0.0047,0.0056,0.0085,0.0106,0.0143,0.0174,0.0213,0.0221,0.0226,0.027,0.021,0.0173,0.0047,-0.0052,-0.016,-0.0285,-0.03,-0.0303,-0.0376,-0.0316,-0.0284,-0.0277,-0.0354,-0.0354,-0.0354,-0.0354,0,0.0102,0.012,0.0123,0.0155,0.0193,0.0242,0.0251,0.03,0.0323,0.0354,0.0369,0.0298,0.0246,0.0092,0.0001,-0.0103,-0.0155,-0.02,-0.021,-0.0213,-0.0205,-0.0109,-0.0092,0,0,0,0,0,0.0145,0.0158,0.0197,0.0214,0.0265,0.0277,0.0335,0.0343,0.036,0.0411,0.0387,0.0343,0.0204,0.0137,0.0036,-0.0023,-0.0189,-0.0147,-0.0249,-0.0345,-0.0347,-0.0365,0,0,0,0,0,0,0.0161,0.0194,0.0201,0.0265,0.0293,0.034,0.0376,0.0394,0.041,0.0417,0.0345,0.0309,0.0166,0.026,0.003,-0.0004,-0.0083,-0.0219,-0.0221,-0.0344,-0.0345,-0.0347,-0.0366,0,0,0,0,0]}]]